When you browse on this site, cookies collect data to enhance your experience and personalize the content and advertising you see.
Visit our Privacy Policy to learn more. By continuing to use the site, you agree to this use of cookies and data.
  • In Netherlands
  • List of Countries
  • For 7 days
  • Water Temperature
  • Weather Map
  • Weather Widgets
  • user-avatar
    Login

    Hourly Weather Silistra

    Today, 21 November, Thursday

    Time Temperature Precipitation Wind Pressure Humidity
    00:00 +14°C° 0.2 mm 5 mps 761 mmHg 80%
    01:00 +14°C° 0.2 mm 5 mps 761 mmHg 80%
    02:00 +13°C° 0 mm 6 mps 761 mmHg 79%
    03:00 +13°C° 0 mm 6 mps 761 mmHg 78%
    04:00 +13°C° 0 mm 6 mps 761 mmHg 78%
    05:00 +13°C° 0 mm 6 mps 761 mmHg 78%
    06:00 +13°C° 0.1 mm 5 mps 760 mmHg 78%
    07:00 +13°C° 0.1 mm 5 mps 760 mmHg 79%
    08:00 +13°C° 0.1 mm 5 mps 760 mmHg 79%
    09:00 +13°C° 0.1 mm 6 mps 761 mmHg 79%
    10:00 +13°C° 0.1 mm 6 mps 761 mmHg 79%
    11:00 +13°C° 0.1 mm 6 mps 761 mmHg 79%
    12:00 +12°C° 0 mm 7 mps 761 mmHg 78%
    13:00 +12°C° 0 mm 7 mps 761 mmHg 77%
    14:00 +12°C° 0 mm 7 mps 761 mmHg 76%
    15:00 +12°C° 0.1 mm 7 mps 761 mmHg 77%
    16:00 +12°C° 0.1 mm 8 mps 761 mmHg 78%
    17:00 +11°C° 0.1 mm 8 mps 761 mmHg 79%
    18:00 +11°C° 0.8 mm 8 mps 761 mmHg 80%
    19:00 +10°C° 0.8 mm 8 mps 761 mmHg 81%
    20:00 +10°C° 0.8 mm 8 mps 762 mmHg 81%
    21:00 +9°C° 0.5 mm 8 mps 762 mmHg 81%
    22:00 +9°C° 0.5 mm 8 mps 762 mmHg 81%
    23:00 +8°C° 0.5 mm 7 mps 762 mmHg 80%

    Tomorrow, 22 November, Friday

    Time Temperature Precipitation Wind Pressure Humidity
    00:00 +8°C° 0.4 mm 7 mps 762 mmHg 80%
    01:00 +8°C° 0.4 mm 7 mps 762 mmHg 79%
    02:00 +6°C° 0.4 mm 7 mps 762 mmHg 79%
    03:00 +6°C° 0.1 mm 8 mps 762 mmHg 78%
    04:00 +6°C° 0.1 mm 8 mps 762 mmHg 77%
    05:00 +6°C° 0.1 mm 8 mps 762 mmHg 76%
    06:00 +5°C° 0 mm 8 mps 762 mmHg 75%
    07:00 +5°C° 0 mm 8 mps 763 mmHg 74%
    08:00 +5°C° 0 mm 8 mps 763 mmHg 73%
    09:00 +5°C° 0 mm 8 mps 763 mmHg 71%
    10:00 +6°C° 0 mm 7 mps 763 mmHg 69%
    11:00 +6°C° 0 mm 7 mps 763 mmHg 66%
    12:00 +6°C° 0 mm 7 mps 763 mmHg 66%
    13:00 +5°C° 0 mm 7 mps 763 mmHg 66%
    14:00 +5°C° 0 mm 6 mps 763 mmHg 66%
    15:00 +5°C° 0 mm 6 mps 763 mmHg 67%
    16:00 +4°C° 0 mm 6 mps 763 mmHg 68%
    17:00 +4°C° 0 mm 6 mps 763 mmHg 69%
    18:00 +3°C° 0 mm 6 mps 763 mmHg 70%
    19:00 +3°C° 0 mm 6 mps 763 mmHg 70%
    20:00 +3°C° 0 mm 5 mps 763 mmHg 71%
    21:00 +2°C° 0 mm 5 mps 763 mmHg 71%
    22:00 +2°C° 0 mm 5 mps 764 mmHg 71%
    23:00 +2°C° 0 mm 5 mps 764 mmHg 71%

    Day after tomorrow, 23 November, Saturday

    Time Temperature Precipitation Wind Pressure Humidity
    00:00 +1°C° 0 mm 5 mps 764 mmHg 70%
    01:00 +1°C° 0 mm 5 mps 763 mmHg 69%
    02:00 +1°C° 0 mm 5 mps 763 mmHg 69%
    03:00 +1°C° 0 mm 4 mps 763 mmHg 71%
    04:00 +1°C° 0 mm 4 mps 763 mmHg 73%
    05:00 +3°C° 0 mm 3 mps 763 mmHg 75%
    06:00 +3°C° 0 mm 3 mps 763 mmHg 76%
    07:00 +3°C° 0 mm 3 mps 763 mmHg 77%
    08:00 +3°C° 0 mm 3 mps 763 mmHg 78%
    09:00 +4°C° 0 mm 3 mps 763 mmHg 77%
    10:00 +4°C° 0 mm 3 mps 763 mmHg 75%
    11:00 +5°C° 0 mm 3 mps 763 mmHg 74%
    12:00 +6°C° 0 mm 2 mps 763 mmHg 73%
    13:00 +7°C° 0 mm 2 mps 762 mmHg 73%
    14:00 +7°C° 0 mm 2 mps 762 mmHg 72%
    15:00 +7°C° 0 mm 2 mps 762 mmHg 74%
    16:00 +7°C° 0 mm 2 mps 762 mmHg 75%
    17:00 +7°C° 0 mm 2 mps 762 mmHg 77%
    18:00 +7°C° 0 mm 2 mps 762 mmHg 78%
    19:00 +7°C° 0 mm 2 mps 762 mmHg 79%
    20:00 +8°C° 0 mm 2 mps 762 mmHg 80%
    21:00 +8°C° 0 mm 2 mps 762 mmHg 81%
    22:00 +8°C° 0 mm 2 mps 762 mmHg 82%
    23:00 +8°C° 0 mm 2 mps 762 mmHg 83%

    24 November, Sunday

    Time Temperature Precipitation Wind Pressure Humidity
    00:00 +8°C° 0 mm 2 mps 762 mmHg 83%
    01:00 +7°C° 0 mm 2 mps 762 mmHg 83%
    02:00 +7°C° 0 mm 2 mps 762 mmHg 82%
    03:00 +7°C° 0 mm 2 mps 762 mmHg 82%
    04:00 +7°C° 0 mm 2 mps 761 mmHg 82%
    05:00 +7°C° 0 mm 2 mps 761 mmHg 82%
    06:00 +7°C° 0 mm 2 mps 761 mmHg 82%
    07:00 +7°C° 0 mm 2 mps 761 mmHg 82%
    08:00 +7°C° 0 mm 2 mps 761 mmHg 82%
    09:00 +8°C° 0 mm 2 mps 761 mmHg 81%
    10:00 +8°C° 0 mm 2 mps 762 mmHg 79%
    11:00 +9°C° 0 mm 2 mps 762 mmHg 77%
    12:00 +9°C° 0 mm 2 mps 761 mmHg 75%
    13:00 +10°C° 0 mm 3 mps 761 mmHg 73%
    14:00 +10°C° 0 mm 3 mps 760 mmHg 71%
    15:00 +10°C° 0 mm 3 mps 760 mmHg 73%
    16:00 +9°C° 0 mm 3 mps 760 mmHg 74%
    17:00 +9°C° 0 mm 3 mps 760 mmHg 76%
    18:00 +9°C° 0 mm 3 mps 760 mmHg 77%
    19:00 +9°C° 0 mm 2 mps 760 mmHg 77%
    20:00 +9°C° 0 mm 2 mps 761 mmHg 78%
    21:00 +9°C° 0 mm 2 mps 760 mmHg 79%
    22:00 +9°C° 0 mm 2 mps 760 mmHg 80%
    23:00 +8°C° 0 mm 2 mps 760 mmHg 80%

    25 November, Monday

    Time Temperature Precipitation Wind Pressure Humidity
    00:00 +8°C° 0 mm 2 mps 760 mmHg 82%
    01:00 +9°C° 0 mm 1 mps 760 mmHg 84%
    02:00 +9°C° 0 mm 1 mps 760 mmHg 85%
    03:00 +8°C° 0 mm 1 mps 760 mmHg 88%
    04:00 +8°C° 0 mm 1 mps 759 mmHg 90%
    05:00 +8°C° 0 mm 1 mps 759 mmHg 92%
    06:00 +8°C° 0 mm 1 mps 759 mmHg 93%
    07:00 +8°C° 0 mm 1 mps 759 mmHg 94%
    08:00 +8°C° 0 mm 1 mps 759 mmHg 95%
    09:00 +9°C° 0 mm 1 mps 759 mmHg 92%
    10:00 +10°C° 0 mm 1 mps 759 mmHg 88%
    11:00 +11°C° 0 mm 1 mps 760 mmHg 85%
    12:00 +12°C° 0 mm 1 mps 759 mmHg 81%
    13:00 +12°C° 0 mm 1 mps 759 mmHg 77%
    14:00 +13°C° 0 mm 1 mps 758 mmHg 73%
    15:00 +13°C° 0 mm 1 mps 758 mmHg 75%
    16:00 +13°C° 0 mm 1 mps 758 mmHg 78%
    17:00 +12°C° 0 mm 1 mps 758 mmHg 80%
    18:00 +12°C° 0 mm 1 mps 758 mmHg 81%
    19:00 +12°C° 0 mm 1 mps 759 mmHg 82%
    20:00 +12°C° 0 mm 2 mps 759 mmHg 84%
    21:00 +12°C° 0 mm 2 mps 759 mmHg 83%
    22:00 +12°C° 0 mm 2 mps 759 mmHg 83%
    23:00 +12°C° 0 mm 2 mps 759 mmHg 83%

    26 November, Tuesday

    Time Temperature Precipitation Wind Pressure Humidity
    00:00 +10°C° 0 mm 2 mps 759 mmHg 83%
    01:00 +11°C° 0 mm 1 mps 758 mmHg 84%
    02:00 +11°C° 0 mm 1 mps 758 mmHg 85%
    03:00 +10°C° 0 mm 1 mps 758 mmHg 87%
    04:00 +10°C° 0 mm 1 mps 758 mmHg 88%
    05:00 +9°C° 0 mm 1 mps 758 mmHg 90%
    06:00 +9°C° 0 mm 1 mps 758 mmHg 89%
    07:00 +9°C° 0 mm 1 mps 758 mmHg 89%
    08:00 +9°C° 0 mm 1 mps 758 mmHg 89%
    09:00 +11°C° 0 mm 1 mps 758 mmHg 83%
    10:00 +12°C° 0 mm 1 mps 758 mmHg 77%
    11:00 +13°C° 0 mm 2 mps 758 mmHg 71%
    12:00 +13°C° 0 mm 2 mps 758 mmHg 68%
    13:00 +14°C° 0 mm 1 mps 758 mmHg 65%
    14:00 +14°C° 0 mm 1 mps 757 mmHg 62%
    15:00 +14°C° 0 mm 1 mps 757 mmHg 64%
    16:00 +13°C° 0 mm 1 mps 757 mmHg 67%
    17:00 +12°C° 0 mm 1 mps 757 mmHg 70%
    18:00 +12°C° 0 mm 1 mps 758 mmHg 72%
    19:00 +12°C° 0 mm 1 mps 758 mmHg 73%
    20:00 +10°C° 0 mm 2 mps 758 mmHg 75%
    21:00 +10°C° 0 mm 2 mps 758 mmHg 77%
    22:00 +10°C° 0 mm 2 mps 758 mmHg 79%
    23:00 +9°C° 0 mm 2 mps 758 mmHg 82%
    Show more